sat.trackr.live / text

‹ back to catalog

GRUS-1A

NORAD 43890 · 2018-111Q

PAYLOAD ACTIVE UNKNOWN

§ Identity

Operator
Country
JPN
Launch date
2018-12-27
Launch site
VOSTO
Launch vehicle
Mass (kg)
RCS (m²)

External: N2YO · Heavens-Above · Gunter

§ Orbital elements

Epoch: 2026-09-20T04:05:33.016992Z

Period
96.07 min
Inclination
97.4357°
Eccentricity
0.0007415
Mean motion
14.98870457 rev/d
Perigee alt
565.2 km
Apogee alt
575.5 km
Semi-major
6,948.5 km
B*
1.1043e-4
RAAN
126.0074°
Arg perigee
180.9184°
Mean anomaly
179.2027°
Rev number
42,193

§ Raw data

GRUS-1A1 43890U 18111Q   26263.17052103  .00001278  00000+0  11043-3 0  99932 43890  97.4357 126.0074 0007415 180.9184 179.2027 14.98870457421939

JSON: /api/v1/satellites/43890 · /tle

For live sub-satellite position, see the globe view (requires WebGL).

§ Visibility from observer

Set your observer location to see the next 7 days of passes ≥ 10°. The values pass through the URL so the page stays shareable.

No JS? Fill the form by hand. The geolocation button needs JavaScript.

§ Radio — SatNOGS DB

ModeDescriptionDownlinkUplink
FM S-band telemetry 2.276 GHz

1 transmitter · refreshed weekly from db.satnogs.org